Theta_e
310 310 310 310 310 311 312 312 312 310 306 304 303 304 304 305 305 304 304 309 303 300 302 302 301 300 300 299 295 298 296 298 298 293 293 295 292 295 291 293 291 290 289 288 288 285 283 300 298 291 297 302 300 300
308 308 308 309 308 309 309 310 311 307 304 303 303 303 303 304 304 303 303 308 306 297 300 303 303 304 304 303 298 299 298 298 303 297 297 298 292 294 293 288 296 289 294 292 292 292 301 302 301 304 303 302 299 299
308 309 309 308 308 309 309 309 307 305 304 303 303 303 303 303 303 302 303 304 301 297 297 297 298 302 306 303 305 296 300 301 301 307 300 298 292 296 290 291 293 296 299 294 293 297 298 300 303 303 302 298 300 301
307 308 309 309 309 308 307 306 305 304 304 303 302 302 302 302 302 302 302 304 300 297 292 296 302 301 305 307 303 304 303 306 306 304 298 296 292 299 294 296 294 296 297 295 295 298 298 301 303 304 303 301 300 300
307 307 306 306 306 305 304 304 303 303 303 302 302 302 302 302 302 303 303 304 304 296 292 295 302 304 305 304 303 304 303 301 300 297 295 294 298 296 298 297 294 299 297 294 293 300 299 300 304 302 300 300 299 299
306 305 305 305 304 304 303 303 303 302 302 302 302 301 301 301 302 301 296 304 305 303 296 292 301 301 302 302 302 302 303 301 300 296 296 297 303 299 293 289 298 300 302 303 299 303 302 303 302 301 299 299 299 296
305 304 304 303 303 303 302 302 302 302 301 301 301 301 301 301 302 298 295 301 303 303 293 292 294 299 299 302 303 303 304 302 300 296 297 299 299 300 297 293 299 302 302 302 305 303 301 302 296 300 299 297 296 295
304 304 303 303 302 302 302 302 301 301 301 300 300 301 301 301 301 299 302 301 304 299 297 290 291 294 301 300 299 305 301 301 300 299 300 298 300 301 293 299 302 303 303 303 302 302 299 299 300 299 296 294 292 292
304 304 303 302 302 302 302 301 301 300 300 301 301 301 301 299 297 300 302 302 303 297 292 292 289 289 301 299 300 299 302 294 303 297 298 300 296 292 297 300 301 302 301 302 302 301 300 298 298 294 293 292 291 290
303 304 303 302 302 301 301 301 300 301 301 299 300 297 293 299 302 302 297 293 292 294 294 289 294 290 295 296 296 296 298 295 292 297 303 297 296 302 303 303 304 304 303 303 299 298 298 296 293 291 291 291 291 290
301 303 303 303 302 302 301 301 300 299 297 300 297 295 301 299 300 296 291 288 290 288 293 294 294 292 300 293 293 299 294 296 289 295 295 294 294 300 302 303 305 304 303 303 302 299 297 294 291 291 291 291 292 291
299 301 303 303 302 302 301 301 299 299 299 298 297 298 301 297 294 289 288 291 288 289 292 292 294 298 299 301 295 296 292 294 287 300 294 291 298 302 302 303 304 305 303 300 298 296 294 293 292 291 291 292 292 292
300 300 302 303 302 301 301 300 298 298 298 299 295 292 293 292 283 283 282 287 288 293 296 297 294 298 298 299 293 294 289 290 301 293 290 294 302 303 303 303 303 303 301 300 298 294 294 292 293 294 292 293 293 294
299 300 301 302 302 301 300 300 299 299 297 291 288 282 285 284 286 288 289 291 296 298 298 297 296 296 299 291 291 287 291 294 289 286 290 301 301 302 303 304 303 300 299 297 294 293 292 292 293 293 293 294 294 294
299 300 300 302 301 300 300 300 299 300 295 288 288 281 285 290 293 294 295 295 298 300 297 295 295 296 293 290 293 292 288 285 290 292 299 301 303 303 303 303 300 298 298 295 293 291 291 293 292 293 294 295 295 295
299 300 300 301 301 300 300 300 299 300 295 289 287 285 289 289 289 291 293 292 297 299 299 298 290 289 288 290 288 287 287 287 293 299 301 303 303 304 305 300 300 299 297 294 292 292 292 293 293 294 295 295 295 296
298 298 299 299 301 300 299 298 297 291 289 286 286 290 289 290 290 292 293 293 297 293 289 292 285 284 288 287 286 292 289 294 300 301 302 304 304 305 305 301 299 298 295 293 292 294 294 294 295 294 292 294 295 296
298 300 300 300 300 298 296 297 292 288 284 288 286 288 290 291 290 290 292 293 292 291 291 288 293 285 283 283 286 287 292 298 300 300 300 303 305 306 303 301 300 297 294 293 294 295 295 294 294 293 294 295 295 295
300 300 300 300 299 296 289 289 291 285 287 289 291 291 291 291 293 293 293 294 294 295 292 290 286 285 287 291 289 290 292 296 296 298 301 303 307 305 304 301 299 296 294 294 294 293 294 295 295 295 295 296 294 296
299 299 299 297 298 293 287 288 292 286 284 290 291 290 291 291 293 294 294 294 293 291 288 286 287 289 292 295 296 294 295 300 298 297 298 301 307 306 303 302 299 296 294 294 295 293 294 295 296 296 296 296 295 295
297 297 297 298 297 294 289 286 287 289 289 286 291 291 290 292 291 290 291 294 291 289 288 290 290 292 295 295 298 297 297 298 298 299 299 299 306 306 303 301 298 295 294 293 294 293 293 294 295 296 296 296 297 297
296 297 293 294 291 288 287 290 288 290 288 289 289 289 287 287 288 289 292 289 289 291 292 293 294 294 294 295 296 297 299 300 301 301 295 299 304 302 301 300 296 294 293 293 295 294 294 295 296 297 296 295 296 295
296 295 294 290 285 285 285 292 286 287 284 286 289 285 286 287 291 294 288 290 292 296 296 296 297 298 297 298 299 300 301 301 300 301 304 306 305 304 301 299 297 294 293 294 296 295 295 293 294 295 296 296 295 294
294 290 285 284 285 283 288 286 288 287 287 286 285 284 286 290 293 288 285 291 295 301 299 297 297 297 298 299 298 298 300 302 301 306 308 304 301 299 298 297 296 296 296 297 296 296 296 295 293 296 295 296 295 294
284 283 284 281 287 284 283 283 285 285 283 285 284 285 288 292 287 287 286 288 293 299 299 301 300 298 297 298 299 300 304 303 305 303 302 302 299 298 295 295 295 297 298 296 295 296 295 296 295 296 295 295 294 294
279 284 282 284 284 283 284 282 283 284 285 284 287 290 290 287 285 285 290 293 294 297 300 300 301 299 298 301 302 302 306 309 304 300 301 300 300 298 294 293 292 294 299 299 297 296 295 296 296 295 294 293 290 295
279 282 288 290 288 287 285 287 287 286 284 284 288 288 287 283 284 290 294 297 297 299 301 302 303 303 301 303 307 307 307 306 304 303 303 303 302 301 298 295 293 296 300 300 299 298 296 295 295 295 295 295 297 297
285 286 282 287 287 288 284 285 284 285 287 290 289 285 284 285 286 292 295 298 299 300 303 303 307 307 307 307 305 305 304 304 304 303 303 301 301 300 299 299 299 291 301 301 301 300 299 298 297 297 297 297 298 300
285 288 287 284 285 285 286 286 287 290 290 288 286 287 287 290 292 293 295 296 298 303 304 305 306 308 306 305 306 306 305 304 300 297 295 293 294 296 299 299 300 301 302 300 288 295 300 299 299 299 299 299 301 301
284 289 285 284 283 284 288 291 289 289 288 288 288 288 288 288 291 298 301 302 303 302 304 307 307 306 304 302 302 302 304 304 305 301 297 295 295 299 299 299 299 301 304 303 301 298 290 298 296 302 300 300 301 301
289 289 286 286 285 289 288 288 288 288 288 287 288 287 287 289 292 295 297 302 303 304 303 301 301 302 302 301 301 301 298 300 303 303 303 303 301 300 299 299 300 301 303 303 303 302 302 302 302 301 301 300 300 299
289 286 286 285 288 287 287 287 288 288 289 289 289 290 290 290 286 292 297 299 298 299 293 298 298 298 299 299 300 298 291 296 296 299 303 304 303 303 301 301 301 301 301 301 302 303 302 301 301 301 301 301 301 301
288 289 289 287 287 286 291 290 289 289 290 288 291 293 292 291 288 293 299 299 298 298 299 300 300 300 300 299 299 298 297 298 290 286 286 287 288 295 303 303 301 300 299 299 299 299 300 300 300 300 300 300 300 300
Wind_Speed
8 9 8 7 8 8 8 8 8 11 10 6 3 1 3 5 7 6 4 3 5 4 9 8 6 8 6 6 5 3 6 6 5 5 4 2 5 2 6 6 5 6 4 4 5 7 8 5 10 9 11 17 19 17
6 8 6 7 8 9 9 8 5 14 11 7 3 2 2 4 5 6 1 0 3 5 7 8 13 16 17 14 8 5 5 3 3 4 3 3 5 5 7 5 4 6 8 3 6 6 17 21 19 16 15 19 15 20
3 4 6 7 8 7 7 6 15 13 10 7 4 1 2 3 4 7 3 3 4 5 9 6 3 2 7 14 12 6 4 5 5 5 5 4 6 5 5 6 13 10 9 8 11 8 13 19 18 17 11 15 20 18
4 2 2 4 3 8 15 15 13 11 9 7 4 1 1 2 3 6 3 2 4 4 6 2 2 3 2 3 13 15 11 2 6 6 7 6 4 7 8 11 10 8 8 12 16 19 16 14 16 19 19 14 18 20
8 8 10 11 13 13 13 13 11 10 9 6 3 1 1 2 3 7 4 3 4 5 6 7 13 3 3 5 11 12 11 12 7 7 5 7 9 8 10 12 11 10 15 10 10 15 15 19 19 18 16 20 18 18
8 10 10 9 10 11 11 11 10 8 7 4 2 1 1 3 6 5 4 4 2 3 5 6 5 5 2 4 7 9 9 8 9 4 5 6 14 7 5 5 9 10 10 16 16 16 18 18 15 16 21 19 16 17
8 9 10 9 9 9 9 8 6 6 4 2 1 2 2 2 6 4 7 5 5 2 3 6 4 3 3 3 4 4 7 5 7 5 8 11 10 6 8 14 15 18 16 12 14 14 16 16 15 19 14 13 17 18
8 9 9 9 8 8 8 7 5 4 2 1 3 5 5 4 7 5 2 9 5 4 4 5 4 4 1 3 4 4 5 6 7 7 7 9 6 4 7 9 11 7 8 12 8 8 12 16 19 17 13 15 16 15
8 11 10 9 9 8 7 6 4 3 2 4 7 7 4 5 3 4 11 7 5 5 4 4 4 3 0 2 3 5 4 4 3 6 10 5 6 7 10 10 12 13 12 12 11 12 16 18 19 10 13 13 12 11
3 11 12 11 9 9 7 6 4 4 4 6 5 4 4 3 9 11 3 4 4 4 4 5 5 7 4 4 3 3 3 6 5 7 3 6 9 13 12 9 6 9 11 11 14 17 17 16 10 11 11 10 9 10
5 7 12 12 11 10 8 6 3 3 6 4 3 1 4 5 4 3 3 4 4 5 5 5 5 6 4 4 5 2 4 3 4 2 4 3 3 4 5 6 7 8 8 9 11 13 12 10 11 9 10 11 10 9
3 1 10 12 11 10 8 6 5 4 2 4 4 2 3 5 4 5 4 5 5 3 4 4 1 3 2 3 4 4 5 4 6 3 4 3 4 3 5 7 8 7 8 10 10 9 8 8 9 8 9 9 8 10
6 5 6 12 12 10 9 9 3 5 5 3 4 3 3 4 5 7 8 5 5 4 1 2 4 3 2 2 4 4 4 6 0 4 4 4 3 3 5 6 7 7 8 11 10 8 6 7 9 7 6 5 8 7
6 6 6 12 12 11 10 8 6 4 5 3 5 4 7 7 6 5 7 4 3 3 2 3 5 3 3 4 3 4 4 5 5 5 5 2 3 6 6 6 7 8 10 9 8 7 6 7 6 5 4 5 6 5
7 8 4 14 13 11 10 9 7 4 2 4 3 6 8 6 1 4 2 5 3 3 4 4 6 5 4 5 6 4 5 4 5 2 2 4 4 5 7 6 6 7 8 8 5 5 6 8 3 4 4 4 4 4
7 9 3 13 13 12 12 9 4 2 2 4 5 6 5 5 6 7 7 7 3 2 2 2 2 5 7 5 5 6 5 3 3 3 4 4 5 6 7 4 3 6 7 5 4 5 7 1 3 3 4 4 5 6
6 3 9 10 11 12 13 4 4 5 4 5 6 7 10 9 7 5 6 5 2 5 5 3 4 3 5 5 5 5 6 6 5 3 4 6 8 8 6 4 4 6 6 3 4 6 4 1 2 4 4 5 6 8
2 9 12 11 10 9 1 3 3 4 6 7 8 8 7 7 8 7 7 7 7 8 7 4 2 5 5 6 4 4 6 8 7 6 6 7 8 6 2 1 4 5 4 3 5 2 0 2 2 3 4 5 6 7
7 8 14 12 5 4 3 2 3 5 7 7 7 8 8 8 9 9 9 8 7 8 5 4 6 6 7 3 3 5 8 9 8 9 8 5 5 3 2 0 4 4 2 3 3 3 1 3 3 3 3 4 4 5
9 14 13 8 3 2 4 2 2 5 5 3 6 8 8 8 8 8 9 8 9 10 10 12 12 10 4 4 4 8 10 11 9 9 9 7 3 1 1 2 4 2 1 3 2 3 1 2 3 4 3 4 5 5
6 6 7 3 2 3 2 2 5 5 5 5 7 7 7 7 9 10 10 9 9 12 12 11 12 11 11 8 8 9 13 12 10 9 10 7 2 0 2 3 3 2 2 1 1 4 3 3 3 4 5 5 5 6
4 7 2 2 2 2 4 5 5 3 4 7 9 7 7 6 8 6 6 6 11 12 11 11 11 11 11 15 13 14 15 15 12 10 7 5 4 1 1 4 3 1 2 1 2 4 3 3 3 4 5 6 7 8
7 4 3 2 3 4 5 3 5 4 5 4 2 4 4 4 2 4 3 6 8 9 8 10 12 13 12 13 12 13 13 12 10 9 4 1 2 3 3 4 3 2 2 1 2 4 4 5 6 6 6 6 9 8
1 4 3 3 6 4 2 4 4 4 4 4 4 5 4 3 3 3 4 5 4 1 4 7 7 7 7 9 8 9 9 7 6 2 1 2 3 5 5 4 2 3 1 3 4 3 5 6 6 6 8 8 10 8
2 3 4 4 4 5 5 4 4 4 5 4 4 5 2 1 2 3 2 2 3 1 2 5 5 6 6 6 6 6 1 4 2 4 4 5 6 4 5 3 4 2 3 5 3 6 7 7 5 8 7 8 12 9
4 5 5 3 3 4 2 4 3 3 4 4 4 3 2 2 3 3 3 4 2 1 3 3 0 4 5 3 1 4 5 5 7 6 6 4 2 2 6 4 4 2 3 3 5 10 7 7 11 12 10 11 9 7
4 5 5 4 4 4 4 5 5 5 4 4 3 3 3 3 2 3 4 3 3 3 3 3 3 4 4 6 7 6 5 6 8 8 8 5 4 2 6 5 7 3 3 6 9 11 11 11 11 11 13 10 6 3
4 4 5 2 4 4 5 4 4 3 2 2 3 3 3 4 2 2 2 4 5 7 2 3 3 7 8 7 6 7 8 9 10 9 7 6 5 6 7 7 6 7 4 9 11 10 10 11 11 14 13 8 5 4
5 3 4 8 6 4 3 3 3 0 1 1 2 2 3 2 3 3 3 5 6 3 5 6 6 6 8 7 6 6 4 3 7 7 8 6 5 7 5 5 6 5 7 9 7 9 13 12 11 11 11 6 4 5
3 3 4 4 4 4 2 2 2 0 2 1 1 2 2 2 5 7 3 2 6 6 5 7 6 7 7 7 8 9 8 8 7 7 7 8 6 5 6 6 7 6 9 11 12 11 10 9 8 11 12 8 4 7
3 2 3 4 4 2 2 3 2 1 1 1 1 1 2 2 4 10 9 7 8 8 9 10 11 10 9 9 7 8 7 8 10 11 10 9 7 6 7 6 6 6 6 9 11 11 10 10 12 15 15 12 10 9
3 5 2 4 2 2 2 2 2 2 2 3 3 3 1 2 4 7 9 7 10 12 8 9 10 9 8 8 8 8 6 5 6 7 8 8 9 10 10 7 5 5 7 8 9 11 12 13 12 13 14 15 14 14
2 2 3 2 1 2 2 2 5 4 5 4 4 7 8 5 7 3 3 7 8 9 10 10 9 9 10 10 9 8 9 10 9 8 8 8 7 7 9 10 9 7 6 5 5 5 7 9 9 10 11 11 11 11
Wind_Direction
195 206 212 225 243 254 251 243 233 191 175 177 183 71 29 26 13 306 77 16 309 284 291 251 239 230 225 241 265 95 261 180 217 249 270 223 265 184 265 261 264 253 277 237 241 264 278 42 303 321 305 308 310 320
197 217 220 233 237 242 247 241 217 160 163 169 178 132 49 26 10 323 236 134 299 257 302 309 276 276 261 274 286 210 284 271 312 263 261 301 255 250 265 277 166 256 222 272 244 269 319 315 300 307 311 299 316 300
198 241 229 223 231 244 235 222 148 148 157 166 152 124 55 28 14 340 341 344 250 275 275 237 264 86 240 234 234 260 192 258 227 316 303 269 262 258 261 252 266 262 256 252 280 261 284 303 304 308 335 310 287 294
121 52 175 168 151 128 121 128 138 150 151 141 133 142 45 27 5 318 312 16 281 298 283 80 178 234 354 189 207 224 267 231 283 245 247 257 254 265 256 260 262 264 286 267 275 287 294 294 303 313 306 307 296 300
124 110 105 113 120 122 127 137 146 141 137 135 152 173 33 348 317 278 290 283 271 289 316 306 299 338 137 202 227 229 232 236 241 221 245 258 265 267 249 268 273 245 260 263 269 300 302 303 315 313 307 307 303 325
123 115 117 121 126 133 135 137 141 142 140 142 146 165 331 340 306 266 212 130 212 238 285 291 46 278 289 245 244 217 210 215 239 210 249 249 249 268 253 244 257 251 230 249 275 295 298 302 317 322 305 314 341 313
146 140 130 132 134 135 133 141 150 142 136 143 217 263 295 311 284 302 0 37 133 209 271 279 260 127 288 262 163 181 187 200 231 205 236 252 261 188 260 261 283 291 283 271 282 304 302 321 307 300 323 338 316 310
163 147 146 146 142 143 146 147 151 156 157 232 282 293 291 286 266 249 149 169 195 254 233 267 275 241 344 232 200 160 183 207 211 242 245 256 264 248 257 266 282 305 291 293 312 325 297 294 297 324 348 322 314 312
181 163 154 157 154 153 157 157 175 200 250 288 294 288 239 217 220 80 113 151 221 308 291 224 279 341 229 227 271 200 222 244 262 226 245 257 230 217 243 278 290 298 313 316 313 301 296 309 326 332 318 317 311 308
348 171 163 171 167 167 173 175 201 269 278 291 240 220 180 86 105 123 201 165 180 218 228 253 253 261 323 289 256 278 183 250 237 205 218 241 256 266 282 299 321 314 317 311 315 311 320 321 326 320 318 311 303 298
338 194 179 170 172 172 177 184 214 254 232 223 206 205 55 139 194 201 205 200 172 226 213 226 256 273 160 266 308 241 298 245 257 153 247 238 259 234 213 271 322 336 332 316 312 318 325 323 315 312 307 309 314 318
274 255 185 173 176 174 180 188 181 243 355 20 342 244 240 219 208 246 217 159 210 247 175 232 240 227 261 245 256 218 250 232 254 132 247 243 239 180 264 325 327 330 333 327 332 322 324 318 310 293 295 319 324 312
226 231 211 185 177 171 169 162 168 93 195 198 221 207 240 142 226 228 202 182 203 205 70 232 235 228 155 310 284 279 247 246 227 217 227 256 81 278 342 328 326 3 340 335 344 329 318 316 316 325 314 332 315 333
212 216 239 185 170 169 169 169 164 186 248 232 189 217 226 188 233 213 251 5 93 179 198 283 280 270 181 183 229 262 279 286 241 224 211 209 26 1 343 335 349 346 347 345 330 328 321 311 327 328 340 324 336 15
212 212 232 175 168 169 173 164 180 218 248 240 226 234 223 254 315 287 282 249 205 249 273 272 251 240 258 248 203 235 213 239 263 303 86 59 19 343 348 358 14 345 347 344 341 329 319 323 6 344 344 12 38 62
220 224 170 161 166 165 160 162 192 212 236 240 233 255 247 250 244 218 221 244 173 240 260 231 280 274 233 237 218 219 260 261 12 16 14 17 350 335 346 51 1 11 1 350 330 316 301 313 329 12 57 46 62 77
130 128 149 183 183 160 161 197 195 218 247 232 230 233 269 293 302 286 291 257 316 246 259 257 222 244 308 266 229 224 275 351 354 339 3 352 330 334 16 40 349 15 6 343 332 333 89 87 300 103 82 74 77 87
111 130 160 163 157 128 59 234 248 248 243 242 251 256 238 251 272 265 256 243 238 248 233 251 291 212 225 256 314 336 311 328 324 347 335 340 336 349 41 72 27 28 24 326 320 356 157 144 96 106 101 100 99 97
136 136 152 149 145 132 162 204 263 261 241 258 261 265 264 266 265 266 264 259 249 253 229 223 235 240 238 67 307 312 282 307 338 319 302 320 332 326 157 183 52 36 54 338 2 102 25 13 113 123 103 107 100 96
129 137 130 131 188 146 215 178 217 262 265 294 274 263 260 255 262 247 238 232 226 218 224 232 241 256 257 208 184 284 293 289 316 314 319 339 28 176 174 318 62 58 100 335 106 146 104 92 104 112 101 104 115 106
112 130 127 245 152 238 304 252 226 223 270 265 285 286 275 270 249 247 242 234 220 231 232 233 240 244 253 251 221 241 268 284 299 315 304 312 310 128 196 110 104 88 145 354 26 121 117 83 120 127 127 102 101 97
104 96 110 264 195 249 253 224 262 305 249 259 285 258 261 265 260 248 250 240 239 236 234 241 239 238 242 246 251 249 265 275 281 290 244 258 272 245 204 130 140 94 163 305 324 130 127 123 133 113 110 109 107 112
131 163 160 150 236 225 263 185 244 229 255 264 262 258 240 231 240 182 231 250 235 230 232 232 235 245 249 253 256 255 257 268 272 271 294 234 101 87 90 108 123 148 164 279 125 125 106 119 119 120 122 116 116 119
56 189 199 213 210 257 235 229 224 260 258 244 251 262 258 231 188 203 216 244 207 89 214 212 218 225 217 225 243 246 247 246 261 332 73 137 111 87 72 87 80 116 192 116 132 158 109 111 119 121 126 124 125 131
186 205 208 230 231 235 239 237 230 230 256 249 260 260 279 292 244 252 282 316 305 275 321 250 207 211 216 206 206 211 163 264 307 108 81 76 87 111 110 86 92 62 104 129 127 112 109 115 124 127 125 121 129 146
245 185 208 226 200 233 271 267 252 292 288 264 241 295 335 294 267 336 11 46 57 352 5 320 312 181 185 212 13 94 76 69 92 109 97 127 188 136 137 140 132 95 108 131 125 127 120 116 125 121 119 120 119 134
252 225 197 221 269 262 263 256 249 254 252 266 326 322 282 286 310 36 352 355 342 354 325 298 271 321 70 89 80 85 83 73 68 76 75 62 56 32 143 146 137 125 157 123 135 111 118 114 110 113 120 133 148 100
257 274 242 232 229 242 255 277 265 259 303 2 291 265 298 335 345 338 305 339 328 326 347 114 73 75 75 81 94 95 91 96 96 93 91 69 65 75 83 94 93 90 106 124 133 105 123 120 108 113 121 149 146 81
246 235 256 266 252 254 256 237 266 359 39 296 290 305 339 330 301 280 287 295 296 270 119 108 90 97 85 73 68 66 62 92 114 94 87 92 74 98 82 97 88 90 110 104 77 103 111 113 110 114 119 143 122 71
242 196 257 270 256 251 233 220 265 257 229 242 306 287 275 280 297 327 25 74 74 59 58 74 103 112 111 94 81 66 46 30 30 73 85 94 90 110 105 108 89 94 112 112 114 109 109 125 122 116 118 142 122 106
283 255 272 236 261 280 313 311 275 214 233 199 186 265 296 334 333 4 16 28 58 69 74 67 56 40 52 51 53 95 67 29 34 69 92 113 112 89 95 105 90 91 93 113 127 132 123 113 106 117 129 125 110 99
226 230 265 278 299 333 301 350 8 37 30 33 53 26 81 81 68 20 360 30 59 65 58 71 66 60 58 57 66 65 39 42 25 24 59 92 102 112 111 109 100 90 87 91 95 97 99 101 101 100 101 101 98 95
264 238 218 258 277 346 29 71 32 36 31 39 44 51 49 34 64 35 41 40 53 59 60 64 69 69 63 59 60 62 64 66 63 42 35 38 51 88 106 113 129 133 118 92 65 66 95 105 97 91 94 95 92 90